Home   Weather   Easter Island   Past weeks

Flag for Chile Past Weather in Easter Island, Chile — Yesterday and Last 2 Weeks

Now
66 °F

Sprinkles. Partly cloudy.


Feels Like: 66 °F
Forecast: 67 / 75 °F
Wind: 14 mph from Southeast

Location: Isla De Pascua

Current Time: Dec 3, 2016 at 6:45:25 am

Latest Report: Dec 3, 2016 at 6:00 am


Visibility: 5 mi

Pressure: 30.12 "Hg

Humidity: 94%

Dew Point: 64 °F

Location of Easter IslandLocation

Past Weather in Easter Island — Graph

°F

Easter Island Temperature Yesterday

Maximum temperature yesterday: 77 °F (at 3:00 pm)
Minimum temperature yesterday: 61 °F (at 6:00 am)
Average temperature yesterday: 70 °F

High & Low Weather Summary for the Past Weeks

 TemperatureHumidityPressure
High79 °F (Nov 27, 2:00 pm)100% (Nov 19, 2:00 am)30.27 "Hg (Nov 19, 2:00 am)
Low61 °F (Nov 24, 7:00 am)46% (Nov 21, 4:00 pm)29.71 "Hg (Nov 19, 8:00 pm)
Average70 °F75%30.09 "Hg
* Reported Nov 18 5:00 am — Dec 3 5:00 am, Easter Island, Weather by CustomWeather, © 2016

Note: Actual official high and low records may vary slightly from our data, if they occured in-between our weather recording intervals... More about our weather records

Advertising

Easter Island Weather History for the Previous 24 Hours

Scroll right to see more
 ConditionsComfort  
Time TempWeatherWind HumidityBarometerVisibility
5:00 am
Sat, Dec 3
68 °FPartly cloudy.18 mph94%30.12 "HgN/A
4:00 am68 °FPartly cloudy.15 mph88%30.12 "HgN/A
3:00 am68 °FRain showers. Partly cloudy.13 mph94%30.12 "Hg3 mi
2:00 am70 °FPassing clouds.14 mph88%30.12 "HgN/A
1:00 am70 °FPassing clouds.10 mph88%30.15 "HgN/A
12:00 am72 °FPassing clouds.12 mph78%30.15 "HgN/A
11:00 pm
Fri, Dec 2
70 °FPassing clouds.10 mph83%30.12 "HgN/A
10:00 pm70 °FPassing clouds.7 mph83%30.12 "HgN/A
9:00 pm72 °FScattered clouds.9 mph78%30.09 "HgN/A
8:00 pm73 °FBroken clouds.10 mph74%30.09 "HgN/A
7:00 pm73 °FPartly sunny.10 mph74%30.09 "HgN/A
6:00 pm73 °FScattered clouds.12 mph74%30.09 "HgN/A
5:00 pm75 °FScattered clouds.12 mph69%30.09 "HgN/A
4:00 pm75 °FBroken clouds.13 mph69%30.09 "HgN/A
3:00 pm77 °FScattered clouds.7 mph65%30.12 "HgN/A
2:00 pm75 °FScattered clouds.9 mph69%30.12 "HgN/A
1:00 pm75 °FScattered clouds.9 mph65%30.12 "HgN/A
12:00 pm75 °FScattered clouds.9 mph69%30.12 "HgN/A
11:00 am73 °FScattered clouds.9 mph78%30.12 "HgN/A
10:00 am73 °FPartly sunny.6 mph74%30.12 "HgN/A
9:00 am72 °FScattered clouds.6 mph78%30.12 "HgN/A
7:00 am63 °FPassing clouds.3 mph94%30.09 "HgN/A
6:00 am61 °FPassing clouds.3 mph94%30.07 "HgN/A
Weather by CustomWeather, © 2016

See weather overviewHow to use our weather pages